Temperature
24 23 22 22 21 19 20 22 22 21 21 21 21 20 19 19 19 18 19 19 18 18 18 18 18 18 18 18 18 18 18 18 18 18 18 18 18 18 18 18 18 18 18 18 18 18 18 18 18
24 23 22 22 20 19 21 22 21 21 21 21 21 20 19 18 18 19 19 19 18 18 18 18 18 18 18 18 18 18 18 18 18 18 18 18 18 18 18 18 18 18 18 18 18 18 18 18 18
23 23 23 20 20 20 21 22 21 22 22 22 21 20 19 18 19 19 19 19 19 19 18 19 18 18 18 18 18 18 18 18 18 18 18 18 18 18 18 18 18 18 18 18 18 18 18 18 18
23 23 23 21 22 22 22 22 22 22 22 21 21 20 19 19 19 19 19 19 19 19 19 19 19 19 18 18 18 18 18 18 18 18 18 18 18 18 18 18 18 18 18 18 18 18 18 18 18
24 24 21 21 22 23 22 22 22 22 22 21 20 19 19 19 20 19 19 19 19 19 19 19 19 19 18 18 18 18 18 18 18 18 18 18 18 18 18 18 18 18 18 18 18 18 18 18 18
25 22 20 21 23 23 23 23 22 21 21 21 20 19 19 19 20 19 19 19 19 19 19 19 18 19 18 18 18 18 18 18 18 18 18 18 18 18 18 18 18 18 18 18 18 18 18 18 18
24 21 21 22 22 23 23 23 22 21 21 21 21 19 19 19 19 19 19 19 19 19 19 19 19 19 18 18 18 18 18 18 18 18 18 18 18 18 18 18 18 18 18 18 18 18 18 18 18
25 21 22 22 22 23 23 23 22 22 22 21 21 19 19 19 19 19 19 19 19 19 19 19 19 19 19 18 18 18 18 18 18 18 18 18 18 18 18 18 18 18 18 18 18 18 17 17 17
25 21 22 23 23 23 23 23 23 23 22 22 22 21 21 20 19 19 19 19 19 19 19 19 19 19 19 19 18 18 18 18 18 18 18 18 18 18 18 18 18 18 18 18 18 18 17 17 17
25 22 23 24 23 23 24 23 23 22 22 21 21 21 20 20 20 20 20 19 19 19 19 19 19 19 19 19 18 18 18 18 18 18 18 18 18 18 18 18 18 18 18 18 18 18 18 18 18
24 24 25 25 25 25 24 23 23 22 21 21 21 21 20 20 20 20 20 20 20 19 19 19 19 19 19 19 18 18 18 18 18 18 18 18 18 18 18 18 18 18 18 18 18 18 18 18 18
25 25 26 25 25 25 24 23 23 23 23 23 22 22 21 20 20 20 20 20 20 19 19 19 19 19 19 19 18 18 18 18 18 18 18 18 18 18 18 18 18 18 18 18 18 18 18 18 18
26 25 26 26 26 25 24 23 23 23 23 23 22 21 21 21 21 20 20 20 20 20 19 19 19 19 19 19 18 18 18 18 18 18 18 18 18 18 18 18 18 18 18 18 18 18 18 18 18
26 25 25 25 25 25 24 23 23 23 23 22 22 21 21 21 21 21 20 20 20 20 20 19 19 19 19 19 18 18 18 18 18 18 18 18 18 18 18 18 18 18 18 18 18 18 18 18 18
26 24 24 25 25 25 24 23 23 23 23 22 22 21 21 21 21 21 21 21 20 20 20 19 19 19 19 19 19 18 18 18 18 18 18 18 18 18 18 18 18 18 18 18 18 18 18 18 18
25 24 24 25 25 24 24 23 23 23 23 22 22 21 21 21 21 21 21 21 21 20 20 20 19 19 19 19 19 19 18 18 18 18 18 18 18 18 18 18 18 18 18 18 18 18 18 18 18
24 24 24 25 25 24 24 23 23 23 23 22 22 22 22 22 22 21 21 21 21 21 20 20 20 19 19 19 19 19 18 18 18 18 18 18 18 18 18 18 18 18 18 18 18 18 18 18 18
24 24 24 24 25 24 23 23 23 23 23 22 22 22 22 22 22 22 22 21 21 21 20 20 20 19 19 19 19 19 19 19 19 18 18 18 18 18 18 18 18 18 18 18 18 18 18 18 18
25 25 24 24 25 24 23 23 22 22 22 22 22 22 22 23 23 22 22 22 21 21 21 20 20 20 20 19 19 19 19 19 19 18 18 18 18 18 18 18 18 18 18 18 18 18 18 18 18
25 25 25 25 25 24 23 23 23 22 22 23 22 23 23 23 23 22 22 22 22 21 21 21 20 20 20 20 19 19 19 19 19 18 18 18 18 18 18 18 18 18 18 18 18 18 18 18 17
25 25 25 25 24 24 24 23 23 22 23 23 23 23 23 23 24 23 23 22 22 22 21 21 21 20 20 20 19 19 19 19 19 19 19 18 18 18 18 18 18 18 18 18 18 17 17 17 17
25 25 25 25 23 22 23 22 22 22 22 22 23 23 24 24 24 24 23 23 23 22 22 21 21 21 20 20 20 19 19 19 19 19 19 18 18 18 18 18 18 18 18 18 18 17 17 17 17
25 25 24 24 22 22 22 22 22 21 22 22 22 23 24 25 25 24 24 24 23 23 22 22 21 21 20 20 20 20 19 19 19 19 19 19 18 18 18 18 18 18 18 18 17 17 17 17 17
25 23 22 20 20 22 22 22 22 20 21 22 23 24 24 25 25 25 24 24 23 23 22 22 21 21 21 20 20 20 20 19 19 19 19 19 18 18 18 18 18 18 18 17 17 17 17 17 17
24 22 21 22 21 21 21 22 21 22 22 23 23 24 25 25 25 25 24 24 24 23 23 22 22 22 21 21 20 20 20 20 19 19 19 19 19 18 18 18 18 18 18 17 17 17 17 17 16
23 22 22 22 21 21 21 21 22 23 23 24 24 25 25 25 25 25 25 25 25 24 24 23 22 22 22 21 21 20 20 20 20 19 19 19 19 19 18 18 18 18 18 17 17 17 17 17 16
23 22 21 20 20 21 21 21 22 23 23 23 24 24 25 25 26 25 25 25 25 24 24 23 23 23 22 22 21 21 20 20 20 20 19 19 19 19 18 18 18 18 17 17 17 17 17 17 16
23 20 19 19 20 21 22 22 22 23 23 23 22 24 25 25 26 25 25 25 25 25 24 24 23 23 22 22 21 21 21 20 20 20 20 19 19 19 18 18 18 18 17 17 17 17 17 16 16
22 21 18 17 19 20 21 22 22 22 22 22 22 24 25 25 26 25 26 25 25 25 24 24 24 23 22 22 22 21 21 20 20 20 20 19 19 18 18 18 18 18 17 17 17 16 16 16 16
23 21 19 21 20 18 20 21 23 22 22 22 23 24 25 25 26 26 26 25 25 25 24 24 24 23 23 22 22 21 21 21 20 20 20 19 19 18 18 18 18 17 17 17 16 16 16 16 16
Wind_Speed
10 8 4 2 5 6 4 3 2 3 3 4 6 7 6 4 2 3 0 3 2 1 1 3 5 7 8 9 10 11 10 11 13 13 14 14 15 16 16 17 18 18 18 19 19 19 20 20 20
6 5 2 3 5 4 3 3 3 3 5 5 6 7 6 5 3 4 2 3 3 2 2 4 6 7 8 9 10 11 12 12 12 13 13 14 14 15 16 17 18 18 18 19 19 19 19 19 19
6 3 2 4 4 3 2 1 5 5 4 3 4 6 5 3 2 3 3 5 4 2 2 4 7 8 8 9 10 10 11 11 11 12 13 14 14 14 15 16 17 17 18 18 18 18 18 18 17
3 2 4 5 4 1 4 5 6 6 4 5 5 6 4 2 3 4 6 6 4 2 2 4 7 7 8 8 9 10 10 10 11 11 12 13 13 14 14 15 16 16 17 17 17 17 17 16 16
2 4 6 4 3 2 4 6 4 4 3 5 5 5 4 4 6 8 7 6 4 3 2 4 6 7 7 8 9 10 10 10 10 11 12 12 13 13 14 14 15 15 16 16 16 16 16 15 15
3 5 5 2 3 3 3 4 4 6 6 5 5 5 3 3 6 6 6 5 3 3 2 3 5 6 7 7 8 9 10 10 11 12 12 13 13 12 13 13 14 14 15 15 15 14 14 14 13
4 5 4 3 2 2 3 3 4 5 5 4 4 5 2 2 4 6 5 4 3 3 3 3 3 4 5 7 8 8 9 10 10 10 11 12 12 12 12 12 12 13 13 13 13 13 12 12 11
4 5 3 2 4 2 4 4 3 5 4 5 4 6 5 4 6 7 6 5 3 2 2 2 2 3 3 3 6 7 8 9 9 9 10 11 11 10 10 10 10 11 12 12 11 11 10 10 9
4 4 3 5 6 4 6 5 3 3 6 3 3 4 6 11 10 7 5 3 1 1 1 1 2 2 2 2 3 5 6 7 7 7 9 9 7 6 7 8 9 9 9 9 9 9 9 8 7
4 4 6 5 7 7 7 6 6 5 5 3 6 7 10 12 10 8 6 5 4 3 2 1 1 1 1 1 3 3 4 4 5 4 5 6 5 5 5 6 7 7 7 8 8 7 7 6 5
4 5 3 3 6 8 7 6 4 9 4 6 9 11 12 11 9 8 7 6 5 4 3 2 2 2 1 1 2 2 2 3 3 3 4 4 4 3 3 3 3 4 4 4 4 4 4 3 3
3 1 4 5 6 7 8 7 6 5 5 8 12 14 13 12 11 10 9 6 4 3 4 3 3 2 2 1 1 2 1 1 1 1 2 3 1 1 1 1 1 1 1 2 2 2 2 2 2
3 1 2 6 8 8 8 6 6 3 6 10 12 12 12 11 9 7 6 6 5 5 5 4 4 3 2 1 1 2 1 1 1 0 1 2 2 1 1 0 0 0 1 1 1 1 1 1 1
3 5 6 6 7 4 7 4 5 4 9 11 11 11 11 11 9 7 6 6 6 6 5 4 4 4 3 2 2 1 2 2 1 1 1 2 3 2 1 0 0 0 0 1 1 0 1 0 1
6 7 7 3 4 4 8 3 3 6 10 10 10 10 9 9 8 8 8 8 7 6 6 5 5 4 4 3 3 2 2 2 2 2 2 2 3 3 2 1 1 1 1 1 1 1 1 1 1
6 6 2 2 3 5 7 4 4 9 11 10 9 9 8 8 8 8 8 7 7 6 6 5 5 5 4 3 2 2 2 2 2 2 2 3 3 4 3 1 1 1 2 2 2 1 1 1 1
5 3 3 3 4 5 5 5 5 9 11 10 9 9 8 7 7 7 8 8 7 7 7 6 5 5 4 3 2 1 1 1 2 2 2 3 3 4 3 2 1 1 2 2 2 1 2 1 1
4 4 4 5 5 6 5 5 5 10 11 10 9 8 8 9 10 8 8 7 7 6 6 6 5 5 4 2 2 1 1 0 1 1 2 2 3 3 3 2 2 2 2 1 1 2 2 2 2
6 5 5 5 4 6 6 6 7 10 10 10 9 9 9 10 8 7 7 7 6 6 6 6 6 5 4 2 2 2 1 0 0 1 2 2 3 3 3 2 1 2 2 2 2 2 2 2 2
5 4 3 1 2 5 3 4 4 9 11 11 12 11 11 9 6 7 7 7 8 8 7 6 7 6 5 3 3 2 2 1 1 0 0 1 2 3 3 3 2 2 2 1 2 3 2 1 2
3 6 5 4 3 4 3 3 2 4 6 7 8 9 10 12 11 10 10 9 9 9 9 8 7 7 6 5 3 2 2 2 1 1 0 0 1 2 2 2 2 1 2 2 2 3 3 2 2
4 5 7 7 6 1 3 3 6 4 5 8 10 10 11 11 11 10 11 10 11 11 9 8 7 7 6 6 5 5 3 2 2 1 1 0 1 1 2 2 2 1 1 2 2 2 2 3 2
4 3 5 5 6 3 2 2 7 1 6 10 11 11 12 11 12 13 13 13 11 10 9 8 7 7 6 6 7 5 4 3 1 1 1 0 0 0 1 2 2 2 1 2 2 2 2 2 3
6 8 8 7 5 1 3 3 6 5 8 8 9 10 11 11 12 12 11 10 9 8 8 8 8 7 6 7 7 7 6 5 3 2 2 1 0 0 1 2 2 2 1 2 2 2 2 2 2
6 7 4 4 3 5 2 3 8 8 8 10 10 10 10 9 10 11 12 12 11 10 10 9 9 8 7 7 7 7 7 6 6 5 4 3 2 1 2 2 2 2 2 1 1 1 2 2 2
5 9 9 6 6 4 1 6 8 6 6 7 7 7 6 7 9 11 12 12 12 12 11 10 10 9 8 8 7 6 7 5 5 5 5 4 3 3 3 2 2 2 2 1 1 1 1 1 2
7 4 7 8 4 1 5 6 8 3 2 4 5 5 6 8 9 10 10 11 11 11 12 12 11 9 9 9 8 7 7 6 6 5 5 4 3 3 3 3 2 2 2 2 2 1 1 1 1
6 10 7 7 7 3 5 5 5 6 6 5 5 6 7 6 7 8 9 10 10 10 9 10 10 10 8 8 8 7 7 7 6 5 5 4 4 3 3 3 3 2 2 1 1 1 1 1 1
5 6 6 6 6 7 4 7 7 10 8 8 8 6 6 6 7 7 8 8 8 8 8 9 9 8 7 7 7 6 6 6 5 5 5 5 4 4 4 4 3 3 2 2 1 1 1 1 0
5 8 8 7 5 5 5 7 6 7 7 7 7 6 5 6 5 6 6 7 7 8 8 8 8 8 7 7 6 6 6 6 6 5 5 5 5 4 5 4 4 3 3 2 2 1 1 1 1
Wind_Direction
147 145 149 119 55 48 33 3 83 76 57 56 76 81 86 69 91 134 269 122 118 95 97 104 85 77 70 67 67 70 77 86 91 94 96 96 97 99 101 104 107 108 109 109 110 112 112 114 115
146 156 153 64 73 59 359 359 74 81 131 122 81 71 68 60 58 107 115 129 111 109 97 107 89 80 76 73 70 72 79 87 91 94 97 99 99 102 104 104 107 109 110 111 110 110 112 115 115
163 183 83 67 85 137 145 115 115 108 113 86 78 64 72 86 115 144 155 131 106 98 99 112 92 82 78 77 75 74 80 88 91 95 98 99 101 103 106 106 107 109 110 111 110 109 110 112 114
150 62 51 63 60 182 155 151 135 121 72 54 83 68 64 84 144 137 128 123 111 92 98 112 94 87 82 81 79 77 82 91 93 97 98 100 103 105 107 108 108 109 110 112 112 111 110 112 113
88 79 57 48 29 40 111 143 137 107 83 71 82 80 45 16 92 113 122 124 124 105 99 115 99 93 87 82 81 81 79 86 94 99 99 101 103 105 107 109 108 109 109 111 113 112 112 113 115
66 68 74 71 49 57 103 127 109 95 95 91 88 86 47 62 101 122 121 118 118 110 95 110 104 98 91 86 84 86 84 80 89 98 100 102 103 105 107 110 111 110 110 113 114 114 114 113 113
101 87 109 123 100 94 146 123 117 120 110 111 111 94 78 106 117 115 103 98 89 87 82 77 90 96 93 90 86 87 88 85 84 95 102 103 103 103 106 109 111 111 112 114 117 117 114 112 112
125 96 87 120 141 170 140 112 112 119 109 121 114 130 168 180 126 103 90 84 76 65 59 66 72 70 70 84 92 90 91 89 89 92 105 106 103 105 107 107 112 114 115 116 117 116 114 113 114
99 79 156 185 171 168 144 125 131 100 112 118 106 138 154 136 128 113 99 87 93 147 47 52 73 78 76 78 94 94 94 91 88 86 98 95 81 83 99 107 109 110 112 116 116 114 113 110 113
95 135 206 193 169 151 147 138 141 116 121 99 83 92 120 134 143 149 157 169 188 205 210 183 121 121 117 102 86 75 80 78 75 73 82 87 81 73 85 97 107 108 109 111 113 115 111 104 104
135 172 189 147 147 135 134 135 127 130 164 174 151 143 145 151 160 171 179 184 196 198 196 184 182 168 145 68 102 85 73 74 76 80 89 89 79 63 58 54 64 72 90 88 97 95 92 106 116
128 190 145 141 135 134 141 134 123 161 193 160 151 149 155 165 176 184 187 190 185 183 201 192 183 175 185 162 129 123 99 82 66 81 107 111 104 77 60 33 22 35 67 82 90 95 87 105 124
108 92 96 123 125 126 118 125 133 156 128 131 140 149 165 176 184 192 189 181 178 189 199 193 183 183 184 168 182 143 157 168 208 198 151 157 147 135 141 206 309 8 98 111 113 111 101 97 113
106 79 82 94 109 118 118 111 110 154 137 140 153 167 178 184 184 182 186 186 187 194 195 184 177 181 175 173 181 173 184 195 199 230 218 188 183 179 160 151 173 236 186 119 127 159 130 115 127
88 80 60 66 99 119 112 100 188 162 147 156 171 178 185 192 185 190 192 190 188 188 184 179 181 174 173 184 193 193 198 193 201 233 232 202 191 190 181 162 181 218 197 157 122 123 125 134 113
62 77 104 244 125 133 128 199 209 158 158 174 184 186 192 202 200 198 190 187 184 175 176 186 182 162 169 181 182 187 188 188 206 214 218 207 200 192 183 173 208 206 161 153 152 149 109 95 109
49 135 208 229 180 150 159 211 195 166 169 185 193 194 195 202 209 203 191 186 180 177 175 180 175 160 169 176 159 163 163 189 203 196 201 211 203 192 177 176 204 177 149 155 174 148 144 139 125
203 193 207 215 201 158 183 221 188 177 181 192 198 200 200 204 211 201 190 183 177 175 172 175 167 160 155 142 107 94 85 124 179 180 202 205 206 189 172 173 168 149 142 146 148 147 120 138 130
171 176 216 233 188 166 200 216 200 184 188 196 203 206 209 213 211 191 183 176 170 172 172 176 172 170 150 139 144 142 180 207 216 205 197 198 202 185 169 172 151 148 161 176 156 145 128 128 125
163 181 217 295 145 161 200 250 215 193 200 200 202 207 210 212 203 190 184 179 182 184 184 184 186 180 173 167 156 153 151 169 192 201 134 184 185 187 180 169 168 159 157 155 160 157 155 168 161
207 191 194 173 93 64 88 328 238 229 215 212 212 210 208 206 202 196 191 191 187 192 194 195 192 187 181 166 133 107 80 55 50 53 41 234 182 174 167 168 167 172 175 180 188 180 175 186 196
245 221 172 149 126 180 122 247 275 235 228 220 220 214 215 212 200 195 195 193 195 201 195 191 187 187 182 167 165 162 167 188 209 190 181 175 156 166 169 167 169 171 174 188 206 188 185 177 194
203 107 116 118 118 83 47 164 282 250 240 238 226 219 218 211 202 198 199 199 198 195 188 187 181 187 183 177 175 172 182 193 177 153 149 128 37 110 169 166 162 176 190 205 203 190 190 187 191
126 77 61 55 75 122 227 175 271 230 222 236 227 219 216 211 205 200 196 191 192 186 182 179 180 192 186 183 182 184 190 188 179 182 184 191 199 249 192 169 165 177 191 207 212 203 199 202 200
104 98 51 15 17 249 244 197 248 246 224 218 223 224 219 208 200 195 189 190 191 186 184 182 184 195 190 188 193 196 196 190 193 196 196 195 199 216 221 197 188 191 198 200 195 195 212 212 211
167 143 157 182 207 256 262 229 253 259 243 228 223 223 215 202 196 196 195 192 191 190 186 185 189 197 192 194 201 200 196 193 200 198 194 198 206 213 202 189 187 183 174 167 160 181 224 212 216
138 167 156 131 134 134 272 280 300 284 248 230 226 218 216 203 192 193 193 192 189 188 190 190 191 197 196 197 197 198 195 196 201 195 191 198 199 191 177 170 165 158 149 155 151 165 218 211 221
142 142 108 126 145 207 276 266 242 248 229 224 226 226 222 202 191 190 191 191 188 187 188 188 191 196 198 196 197 201 198 199 197 188 191 191 188 172 162 161 157 153 153 148 144 163 200 162 230
118 110 113 117 146 157 218 263 227 217 212 211 223 223 217 200 196 195 191 189 180 174 179 184 187 186 189 196 194 191 192 192 186 189 194 186 175 169 168 165 160 158 162 154 146 162 152 146 136
161 162 147 151 188 170 173 258 265 213 212 203 211 214 205 194 193 192 185 175 171 173 180 184 185 186 194 194 189 194 189 183 186 192 190 175 172 172 169 162 163 171 171 156 150 164 149 148 174
Height
1485 1486 1487 1488 1492 1504 1509 1504 1499 1500 1501 1501 1501 1502 1505 1508 1511 1516 1512 1510 1510 1510 1510 1509 1509 1508 1507 1506 1504 1503 1503 1503 1503 1503 1503 1503 1504 1505 1506 1507 1509 1511 1513 1515 1517 1519 1521 1524 1526
1486 1487 1489 1490 1502 1518 1514 1502 1501 1501 1502 1502 1503 1505 1506 1508 1509 1510 1510 1511 1511 1511 1511 1511 1511 1510 1509 1508 1507 1506 1505 1505 1506 1506 1507 1507 1508 1509 1510 1511 1513 1515 1517 1519 1520 1522 1525 1527 1529
1487 1488 1490 1494 1506 1515 1511 1503 1502 1502 1503 1503 1505 1507 1509 1510 1511 1511 1512 1512 1513 1513 1513 1513 1513 1512 1511 1511 1510 1509 1508 1509 1509 1509 1510 1511 1511 1512 1514 1515 1517 1518 1520 1522 1524 1526 1528 1530 1532
1488 1490 1492 1500 1507 1505 1503 1502 1502 1503 1504 1505 1506 1509 1511 1513 1513 1513 1513 1514 1515 1515 1515 1516 1516 1515 1514 1513 1513 1512 1511 1511 1511 1512 1513 1514 1515 1516 1518 1519 1521 1522 1524 1526 1528 1530 1532 1534 1536
1489 1491 1499 1509 1507 1502 1501 1502 1503 1504 1505 1507 1508 1511 1514 1515 1515 1515 1515 1516 1517 1517 1518 1518 1518 1518 1517 1516 1516 1515 1514 1514 1513 1514 1515 1517 1518 1519 1521 1523 1524 1526 1527 1529 1531 1533 1535 1537 1539
1490 1492 1510 1516 1509 1504 1503 1504 1505 1506 1507 1509 1510 1513 1516 1517 1517 1517 1518 1518 1519 1520 1520 1520 1521 1520 1520 1519 1519 1518 1518 1517 1517 1518 1519 1520 1521 1523 1524 1526 1527 1529 1531 1533 1534 1536 1538 1540 1542
1491 1498 1510 1511 1510 1507 1505 1505 1506 1507 1509 1511 1512 1514 1517 1518 1519 1519 1520 1521 1522 1522 1523 1523 1523 1523 1523 1522 1522 1522 1521 1521 1521 1521 1522 1524 1525 1526 1528 1529 1531 1532 1534 1536 1538 1539 1541 1543 1545
1490 1497 1507 1510 1510 1509 1505 1506 1508 1509 1510 1512 1513 1515 1517 1520 1521 1521 1522 1523 1524 1524 1525 1525 1525 1525 1525 1525 1525 1525 1525 1525 1524 1525 1526 1527 1528 1529 1531 1532 1534 1535 1537 1538 1540 1542 1544 1546 1547
1491 1502 1511 1507 1507 1506 1505 1507 1510 1511 1511 1513 1514 1515 1518 1520 1521 1523 1524 1525 1525 1526 1527 1527 1528 1528 1528 1528 1528 1528 1528 1528 1528 1528 1529 1530 1531 1532 1534 1535 1536 1538 1540 1541 1543 1544 1546 1548 1549
1492 1505 1502 1497 1498 1500 1503 1506 1509 1511 1513 1514 1515 1517 1519 1521 1522 1524 1525 1526 1527 1528 1529 1529 1530 1530 1530 1531 1531 1531 1531 1531 1531 1531 1532 1533 1534 1535 1537 1538 1540 1541 1542 1544 1545 1547 1548 1550 1551
1491 1497 1494 1495 1496 1499 1503 1507 1509 1511 1514 1514 1515 1517 1520 1522 1523 1525 1526 1527 1528 1529 1530 1531 1532 1532 1533 1533 1533 1533 1534 1534 1534 1535 1535 1536 1537 1538 1540 1541 1542 1544 1545 1546 1547 1549 1550 1551 1553
1491 1492 1492 1494 1497 1500 1503 1507 1509 1511 1512 1513 1515 1518 1520 1522 1524 1525 1527 1528 1530 1531 1532 1533 1534 1534 1535 1535 1535 1536 1536 1537 1537 1538 1538 1539 1540 1541 1542 1544 1545 1546 1547 1548 1549 1550 1551 1553 1554
1492 1493 1494 1495 1498 1501 1504 1507 1509 1511 1513 1515 1517 1520 1521 1523 1525 1527 1528 1530 1531 1532 1533 1534 1535 1536 1536 1537 1537 1538 1538 1539 1539 1540 1541 1542 1542 1543 1544 1545 1547 1548 1549 1549 1550 1551 1552 1553 1554
1492 1494 1497 1499 1501 1504 1506 1509 1511 1513 1514 1516 1518 1520 1522 1524 1525 1527 1529 1530 1531 1532 1534 1535 1536 1537 1538 1538 1539 1540 1540 1541 1541 1542 1543 1544 1544 1545 1546 1547 1548 1549 1550 1550 1551 1552 1553 1554 1554
1493 1498 1501 1502 1502 1505 1508 1513 1511 1512 1515 1517 1519 1521 1523 1524 1526 1527 1528 1530 1531 1533 1534 1535 1537 1538 1538 1539 1540 1541 1542 1542 1543 1543 1544 1545 1546 1546 1547 1548 1548 1549 1550 1551 1552 1552 1553 1553 1554
1497 1506 1512 1505 1504 1506 1512 1519 1511 1512 1514 1517 1519 1521 1523 1524 1526 1527 1529 1530 1532 1533 1534 1536 1537 1538 1539 1540 1541 1542 1543 1543 1544 1545 1545 1546 1546 1547 1548 1548 1549 1549 1550 1551 1551 1552 1552 1553 1554
1508 1516 1515 1509 1504 1505 1510 1515 1510 1511 1514 1516 1518 1520 1522 1524 1525 1527 1529 1530 1532 1533 1534 1536 1537 1538 1539 1540 1541 1542 1543 1544 1545 1546 1546 1547 1547 1548 1548 1548 1549 1550 1550 1550 1551 1551 1552 1552 1553
1515 1514 1513 1511 1504 1505 1510 1511 1509 1510 1512 1515 1517 1519 1520 1522 1523 1526 1528 1530 1532 1533 1535 1536 1537 1538 1539 1541 1542 1543 1544 1544 1545 1546 1547 1547 1548 1548 1548 1549 1549 1549 1550 1550 1550 1551 1551 1551 1552
1501 1507 1511 1507 1500 1505 1509 1510 1508 1509 1512 1514 1516 1517 1519 1520 1522 1525 1527 1529 1531 1533 1534 1535 1537 1538 1539 1540 1541 1542 1543 1544 1545 1546 1546 1547 1547 1548 1548 1549 1549 1549 1549 1549 1549 1549 1550 1550 1550
1500 1506 1508 1504 1500 1505 1510 1510 1507 1507 1508 1509 1512 1514 1516 1518 1520 1523 1525 1527 1529 1531 1533 1535 1536 1537 1539 1540 1541 1542 1543 1544 1545 1546 1546 1547 1547 1548 1548 1548 1548 1548 1548 1548 1548 1548 1548 1548 1549
1500 1504 1505 1507 1505 1506 1511 1515 1510 1507 1507 1509 1510 1511 1513 1515 1517 1520 1522 1525 1527 1529 1531 1533 1535 1536 1538 1539 1541 1542 1543 1543 1544 1545 1546 1546 1547 1547 1548 1548 1548 1548 1547 1547 1547 1547 1547 1547 1547
1503 1493 1496 1502 1513 1522 1517 1533 1515 1508 1507 1506 1506 1508 1509 1511 1514 1516 1519 1521 1524 1527 1529 1531 1533 1535 1537 1538 1540 1541 1541 1542 1543 1544 1545 1546 1546 1547 1547 1547 1547 1546 1546 1546 1546 1546 1546 1545 1545
1493 1490 1496 1503 1514 1524 1522 1530 1521 1510 1509 1504 1502 1503 1504 1507 1510 1512 1515 1518 1521 1524 1527 1530 1532 1534 1535 1537 1538 1539 1540 1541 1543 1543 1544 1545 1546 1546 1546 1546 1545 1545 1545 1545 1545 1544 1544 1543 1543
1488 1496 1504 1514 1522 1536 1526 1530 1525 1513 1504 1499 1497 1498 1500 1502 1505 1508 1512 1515 1519 1522 1525 1527 1530 1532 1534 1535 1536 1538 1539 1540 1541 1542 1543 1544 1544 1545 1545 1545 1544 1544 1544 1543 1543 1542 1542 1542 1541
1490 1509 1531 1535 1543 1539 1524 1526 1520 1498 1493 1492 1492 1493 1495 1498 1501 1504 1508 1511 1515 1518 1521 1524 1527 1529 1532 1533 1535 1536 1537 1538 1539 1541 1542 1542 1543 1543 1543 1543 1543 1543 1542 1542 1541 1541 1540 1540 1539
1493 1503 1528 1541 1545 1538 1527 1526 1507 1491 1488 1488 1489 1490 1493 1495 1497 1500 1504 1508 1511 1515 1518 1521 1524 1527 1529 1530 1532 1534 1535 1536 1537 1539 1540 1540 1541 1542 1542 1542 1542 1541 1541 1540 1539 1539 1538 1537 1537
1494 1501 1503 1524 1532 1537 1531 1518 1501 1488 1487 1487 1487 1488 1489 1491 1494 1497 1501 1505 1508 1511 1515 1518 1521 1524 1526 1528 1530 1531 1533 1534 1536 1537 1538 1539 1539 1540 1540 1540 1540 1540 1539 1538 1537 1537 1536 1535 1535
1483 1495 1511 1524 1539 1542 1529 1521 1512 1493 1488 1486 1486 1485 1486 1489 1491 1494 1498 1502 1505 1508 1512 1515 1518 1521 1523 1525 1527 1529 1530 1532 1534 1535 1536 1537 1537 1538 1538 1539 1538 1538 1537 1536 1536 1535 1534 1533 1533
1490 1497 1507 1520 1522 1537 1538 1523 1490 1487 1483 1484 1483 1483 1484 1487 1489 1492 1495 1499 1502 1506 1509 1512 1515 1518 1521 1523 1525 1526 1528 1530 1531 1532 1533 1534 1535 1536 1536 1537 1536 1536 1535 1535 1534 1533 1532 1531 1531
1479 1488 1500 1512 1521 1526 1528 1517 1479 1479 1479 1479 1481 1482 1483 1485 1488 1491 1493 1496 1499 1502 1506 1509 1512 1514 1517 1520 1522 1524 1526 1527 1529 1530 1531 1532 1533 1534 1534 1534 1534 1534 1534 1533 1532 1532 1531 1530 1529